Time,TemperatureF,DewpointF,PressureIn,WindDirection,WindDirectionDegrees,WindSpeedMPH,WindSpeedGustMPH,Humidity,HourlyPrecipIn,Conditions,Clouds,dailyrainin,SoftwareType,DateUTC
2013-02-10 00:11:00,18.7,7.0,30.32,NW,307,2.0,6.0,61,0.00,,,0.00,weatherlink.com 1.10,2013-02-10 05:11:00,
2013-02-10 00:26:00,18.5,7.0,30.33,NW,319,3.0,6.0,61,0.00,,,0.00,weatherlink.com 1.10,2013-02-10 05:26:00,
2013-02-10 00:41:00,18.1,7.0,30.33,WNW,287,1.0,6.0,63,0.00,,,0.00,weatherlink.com 1.10,2013-02-10 05:41:00,
2013-02-10 00:56:00,17.9,7.0,30.33,NNW,333,0.0,8.0,63,0.00,,,0.00,weatherlink.com 1.10,2013-02-10 05:56:00,
2013-02-10 01:11:00,17.8,7.0,30.33,NNW,330,0.0,5.0,63,0.00,,,0.00,weatherlink.com 1.10,2013-02-10 06:11:00,
2013-02-10 01:27:00,17.7,7.0,30.33,NW,319,2.0,3.0,64,0.00,,,0.00,weatherlink.com 1.10,2013-02-10 06:27:00,
2013-02-10 01:42:00,17.7,7.0,30.34,NW,325,2.0,4.0,63,0.00,,,0.00,weatherlink.com 1.10,2013-02-10 06:42:00,
2013-02-10 01:57:00,17.6,8.0,30.34,SW,214,0.0,2.0,66,0.00,,,0.00,weatherlink.com 1.10,2013-02-10 06:57:00,
2013-02-10 02:12:00,17.4,8.0,30.35,NNW,341,0.0,4.0,66,0.00,,,0.00,weatherlink.com 1.10,2013-02-10 07:12:00,
2013-02-10 02:27:00,17.6,8.0,30.35,WNW,290,2.0,5.0,65,0.00,,,0.00,weatherlink.com 1.10,2013-02-10 07:27:00,
2013-02-10 02:42:00,17.5,8.0,30.35,WNW,286,4.0,4.0,65,0.00,,,0.00,weatherlink.com 1.10,2013-02-10 07:42:00,
2013-02-10 02:57:00,17.1,8.0,30.35,North,355,2.0,5.0,66,0.00,,,0.00,weatherlink.com 1.10,2013-02-10 07:57:00,
2013-02-10 03:12:00,17.1,8.0,30.35,NNW,327,3.0,6.0,68,0.00,,,0.00,weatherlink.com 1.10,2013-02-10 08:12:00,
2013-02-10 03:27:00,17.0,8.0,30.35,NW,320,1.0,5.0,69,0.00,,,0.00,weatherlink.com 1.10,2013-02-10 08:27:00,
2013-02-10 03:42:00,16.7,9.0,30.35,NW,311,2.0,7.0,71,0.00,,,0.00,weatherlink.com 1.10,2013-02-10 08:42:00,
2013-02-10 03:57:00,16.3,8.0,30.35,WNW,298,0.0,2.0,71,0.00,,,0.00,weatherlink.com 1.10,2013-02-10 08:57:00,
2013-02-10 04:12:00,16.0,8.0,30.35,WNW,298,0.0,0.0,72,0.00,,,0.00,weatherlink.com 1.10,2013-02-10 09:12:00,
2013-02-10 04:27:00,15.3,8.0,30.35,WNW,298,0.0,0.0,73,0.00,,,0.00,weatherlink.com 1.10,2013-02-10 09:27:00,
2013-02-10 04:42:00,14.4,7.0,30.35,NW,312,1.0,3.0,73,0.00,,,0.00,weatherlink.com 1.10,2013-02-10 09:42:00,
2013-02-10 04:57:00,16.3,7.0,30.35,NNW,331,0.0,4.0,67,0.00,,,0.00,weatherlink.com 1.10,2013-02-10 09:57:00,
2013-02-10 05:12:00,15.5,7.0,30.36,NNW,331,0.0,0.0,70,0.00,,,0.00,weatherlink.com 1.10,2013-02-10 10:12:00,
2013-02-10 05:27:00,14.9,7.0,30.37,NNW,331,0.0,0.0,72,0.00,,,0.00,weatherlink.com 1.10,2013-02-10 10:27:00,
2013-02-10 05:42:00,14.6,7.0,30.38,NNW,331,0.0,0.0,72,0.00,,,0.00,weatherlink.com 1.10,2013-02-10 10:42:00,
2013-02-10 05:57:00,14.4,7.0,30.38,NNW,331,0.0,0.0,72,0.00,,,0.00,weatherlink.com 1.10,2013-02-10 10:57:00,
2013-02-10 06:12:00,13.7,7.0,30.39,NNW,331,0.0,0.0,74,0.00,,,0.00,weatherlink.com 1.10,2013-02-10 11:12:00,
2013-02-10 06:27:00,13.7,7.0,30.40,NNW,331,0.0,0.0,74,0.00,,,0.00,weatherlink.com 1.10,2013-02-10 11:27:00,
2013-02-10 06:42:00,13.5,6.0,30.40,NNW,331,0.0,0.0,73,0.00,,,0.00,weatherlink.com 1.10,2013-02-10 11:42:00,
2013-02-10 06:57:00,13.2,7.0,30.41,NNW,331,0.0,0.0,76,0.00,,,0.00,weatherlink.com 1.10,2013-02-10 11:57:00,
2013-02-10 07:12:00,14.1,7.0,30.41,NNW,331,0.0,0.0,74,0.00,,,0.00,weatherlink.com 1.10,2013-02-10 12:12:00,
2013-02-10 07:27:00,13.9,7.0,30.40,NNW,331,0.0,0.0,74,0.00,,,0.00,weatherlink.com 1.10,2013-02-10 12:27:00,
2013-02-10 07:42:00,14.6,8.0,30.41,NNW,331,0.0,0.0,75,0.00,,,0.00,weatherlink.com 1.10,2013-02-10 12:42:00,
2013-02-10 07:57:00,15.9,9.0,30.42,NNW,331,0.0,0.0,73,0.00,,,0.00,weatherlink.com 1.10,2013-02-10 12:57:00,
2013-02-10 08:12:00,17.7,11.0,30.43,NNW,331,0.0,0.0,74,0.00,,,0.00,weatherlink.com 1.10,2013-02-10 13:12:00,
2013-02-10 08:27:00,18.6,9.0,30.44,NNW,334,0.0,3.0,66,0.00,,,0.00,weatherlink.com 1.10,2013-02-10 13:27:00,
2013-02-10 08:42:00,19.3,10.0,30.44,NNW,334,0.0,0.0,66,0.00,,,0.00,weatherlink.com 1.10,2013-02-10 13:42:00,
2013-02-10 08:57:00,20.5,11.0,30.45,NNW,335,0.0,3.0,67,0.00,,,0.00,weatherlink.com 1.10,2013-02-10 13:57:00,
2013-02-10 09:13:00,21.2,11.0,30.46,NNW,348,0.0,3.0,64,0.00,,,0.00,weatherlink.com 1.10,2013-02-10 14:13:00,
2013-02-10 09:28:00,22.3,9.0,30.45,NE,36,0.0,4.0,58,0.00,,,0.00,weatherlink.com 1.10,2013-02-10 14:28:00,
2013-02-10 09:43:00,22.6,9.0,30.46,NE,35,0.0,3.0,57,0.00,,,0.00,weatherlink.com 1.10,2013-02-10 14:43:00,
2013-02-10 09:58:00,23.3,10.0,30.46,NNE,15,0.0,3.0,57,0.00,,,0.00,weatherlink.com 1.10,2013-02-10 14:58:00,
2013-02-10 10:13:00,24.3,9.0,30.45,North,360,0.0,3.0,52,0.00,,,0.00,weatherlink.com 1.10,2013-02-10 15:13:00,
2013-02-10 10:28:00,25.5,10.0,30.46,NW,318,0.0,3.0,51,0.00,,,0.00,weatherlink.com 1.10,2013-02-10 15:28:00,
2013-02-10 10:43:00,26.6,10.0,30.46,NNE,24,0.0,3.0,49,0.00,,,0.00,weatherlink.com 1.10,2013-02-10 15:43:00,
2013-02-10 10:58:00,27.6,11.0,30.46,NE,53,1.0,3.0,49,0.00,,,0.00,weatherlink.com 1.10,2013-02-10 15:58:00,
2013-02-10 11:13:00,28.4,10.0,30.45,North,11,0.0,3.0,47,0.00,,,0.00,weatherlink.com 1.10,2013-02-10 16:13:00,
2013-02-10 11:28:00,29.4,13.0,30.45,East,98,0.0,5.0,50,0.00,,,0.00,weatherlink.com 1.10,2013-02-10 16:28:00,
2013-02-10 11:43:00,29.8,12.0,30.45,ENE,73,1.0,4.0,47,0.00,,,0.00,weatherlink.com 1.10,2013-02-10 16:43:00,
2013-02-10 11:58:00,30.7,13.0,30.43,ENE,69,3.0,5.0,49,0.00,,,0.00,weatherlink.com 1.10,2013-02-10 16:58:00,
2013-02-10 12:13:00,30.7,13.0,30.42,SE,139,0.0,4.0,48,0.00,,,0.00,weatherlink.com 1.10,2013-02-10 17:13:00,
2013-02-10 12:28:00,31.2,14.0,30.42,ENE,60,0.0,5.0,49,0.00,,,0.00,weatherlink.com 1.10,2013-02-10 17:28:00,
2013-02-10 12:43:00,31.6,14.0,30.41,South,174,0.0,5.0,49,0.02,,,0.02,weatherlink.com 1.10,2013-02-10 17:43:00,
2013-02-10 12:58:00,32.0,14.0,30.40,East,84,2.0,5.0,47,0.02,,,0.02,weatherlink.com 1.10,2013-02-10 17:58:00,
2013-02-10 13:13:00,31.7,14.0,30.40,ENE,72,2.0,3.0,48,0.02,,,0.02,weatherlink.com 1.10,2013-02-10 18:13:00,
2013-02-10 13:28:00,32.5,15.0,30.39,South,169,0.0,4.0,48,0.02,,,0.02,weatherlink.com 1.10,2013-02-10 18:28:00,
2013-02-10 13:43:00,33.0,15.0,30.39,SE,145,0.0,4.0,47,0.01,,,0.03,weatherlink.com 1.10,2013-02-10 18:43:00,
2013-02-10 13:58:00,33.3,14.0,30.39,ESE,121,0.0,4.0,46,0.02,,,0.04,weatherlink.com 1.10,2013-02-10 18:58:00,
2013-02-10 14:13:00,33.8,15.0,30.39,SSW,196,0.0,4.0,46,0.02,,,0.04,weatherlink.com 1.10,2013-02-10 19:13:00,
2013-02-10 14:28:00,34.4,14.0,30.39,SSW,192,1.0,6.0,43,0.03,,,0.05,weatherlink.com 1.10,2013-02-10 19:28:00,
2013-02-10 14:43:00,34.9,16.0,30.39,South,173,2.0,3.0,47,0.01,,,0.05,weatherlink.com 1.10,2013-02-10 19:43:00,
2013-02-10 14:58:00,35.6,17.0,30.38,South,172,0.0,5.0,46,0.02,,,0.06,weatherlink.com 1.10,2013-02-10 19:58:00,
2013-02-10 15:14:00,35.5,15.0,30.37,South,173,2.0,4.0,43,0.03,,,0.07,weatherlink.com 1.10,2013-02-10 20:14:00,
2013-02-10 15:29:00,35.2,15.0,30.36,South,173,0.0,2.0,43,0.02,,,0.07,weatherlink.com 1.10,2013-02-10 20:29:00,
2013-02-10 15:44:00,35.3,15.0,30.36,South,174,0.0,4.0,44,0.02,,,0.07,weatherlink.com 1.10,2013-02-10 20:44:00,
2013-02-10 15:59:00,35.1,15.0,30.38,South,176,0.0,3.0,43,0.01,,,0.07,weatherlink.com 1.10,2013-02-10 20:59:00,
2013-02-10 16:14:00,34.7,14.0,30.38,South,176,0.0,3.0,43,0.01,,,0.08,weatherlink.com 1.10,2013-02-10 21:14:00,
2013-02-10 16:29:00,34.6,14.0,30.37,South,176,1.0,4.0,42,0.01,,,0.08,weatherlink.com 1.10,2013-02-10 21:29:00,
2013-02-10 16:44:00,34.1,12.0,30.36,South,176,0.0,4.0,40,0.01,,,0.08,weatherlink.com 1.10,2013-02-10 21:44:00,
2013-02-10 16:59:00,33.7,13.0,30.36,South,176,4.0,5.0,42,0.01,,,0.08,weatherlink.com 1.10,2013-02-10 21:59:00,
2013-02-10 17:14:00,33.1,13.0,30.37,South,176,0.0,1.0,44,0.00,,,0.08,weatherlink.com 1.10,2013-02-10 22:14:00,
2013-02-10 17:29:00,32.2,15.0,30.37,South,176,0.0,0.0,49,0.00,,,0.08,weatherlink.com 1.10,2013-02-10 22:29:00,
2013-02-10 17:44:00,31.3,14.0,30.37,South,176,0.0,0.0,50,0.00,,,0.08,weatherlink.com 1.10,2013-02-10 22:44:00,
2013-02-10 17:59:00,30.4,14.0,30.37,South,176,0.0,0.0,51,0.00,,,0.08,weatherlink.com 1.10,2013-02-10 22:59:00,
2013-02-10 18:14:00,30.4,15.0,30.38,South,176,0.0,1.0,52,0.00,,,0.08,weatherlink.com 1.10,2013-02-10 23:14:00,
2013-02-10 18:29:00,30.1,16.0,30.37,South,176,0.0,0.0,55,0.00,,,0.08,weatherlink.com 1.10,2013-02-10 23:29:00,
2013-02-10 18:44:00,29.5,16.0,30.37,South,176,0.0,0.0,57,0.00,,,0.08,weatherlink.com 1.10,2013-02-10 23:44:00,
2013-02-10 18:59:00,29.1,16.0,30.37,South,176,0.0,0.0,59,0.00,,,0.08,weatherlink.com 1.10,2013-02-10 23:59:00,
2013-02-10 19:14:00,28.5,16.0,30.37,South,176,0.0,0.0,60,0.00,,,0.08,weatherlink.com 1.10,2013-02-11 00:14:00,
2013-02-10 19:29:00,28.6,16.0,30.37,South,176,0.0,1.0,60,0.00,,,0.08,weatherlink.com 1.10,2013-02-11 00:29:00,
2013-02-10 19:44:00,28.1,16.0,30.37,South,176,0.0,0.0,62,0.00,,,0.08,weatherlink.com 1.10,2013-02-11 00:44:00,
2013-02-10 19:59:00,27.9,17.0,30.37,South,176,0.0,0.0,63,0.00,,,0.08,weatherlink.com 1.10,2013-02-11 00:59:00,
2013-02-10 20:14:00,27.3,16.0,30.37,South,176,0.0,0.0,63,0.00,,,0.08,weatherlink.com 1.10,2013-02-11 01:14:00,
2013-02-10 20:29:00,27.0,18.0,30.36,South,176,0.0,0.0,68,0.00,,,0.08,weatherlink.com 1.10,2013-02-11 01:29:00,
2013-02-10 20:44:00,27.0,17.0,30.36,South,176,0.0,0.0,65,0.00,,,0.08,weatherlink.com 1.10,2013-02-11 01:44:00,
2013-02-10 20:59:00,27.4,17.0,30.35,South,176,0.0,0.0,65,0.00,,,0.08,weatherlink.com 1.10,2013-02-11 01:59:00,
2013-02-10 21:14:00,27.5,18.0,30.34,South,176,0.0,0.0,67,0.00,,,0.08,weatherlink.com 1.10,2013-02-11 02:14:00,
2013-02-10 21:29:00,27.5,18.0,30.35,South,176,0.0,0.0,67,0.00,,,0.08,weatherlink.com 1.10,2013-02-11 02:29:00,
2013-02-10 21:44:00,27.8,19.0,30.35,South,176,0.0,3.0,70,0.00,,,0.08,weatherlink.com 1.10,2013-02-11 02:44:00,
2013-02-10 21:59:00,28.0,20.0,30.34,South,176,0.0,1.0,72,0.00,,,0.08,weatherlink.com 1.10,2013-02-11 02:59:00,
2013-02-10 22:14:00,28.0,20.0,30.34,South,176,0.0,0.0,73,0.00,,,0.08,weatherlink.com 1.10,2013-02-11 03:14:00,
2013-02-10 22:29:00,27.9,21.0,30.33,South,176,0.0,0.0,74,0.00,,,0.08,weatherlink.com 1.10,2013-02-11 03:29:00,
2013-02-10 22:44:00,28.1,21.0,30.33,South,176,0.0,0.0,75,0.00,,,0.08,weatherlink.com 1.10,2013-02-11 03:44:00,
2013-02-10 22:59:00,28.3,22.0,30.32,South,176,0.0,0.0,76,0.00,,,0.08,weatherlink.com 1.10,2013-02-11 03:59:00,
2013-02-10 23:14:00,28.8,22.0,30.32,South,176,0.0,0.0,76,0.00,,,0.08,weatherlink.com 1.10,2013-02-11 04:14:00,
2013-02-10 23:29:00,28.8,22.0,30.32,South,176,0.0,0.0,75,0.00,,,0.08,weatherlink.com 1.10,2013-02-11 04:29:00,
2013-02-10 23:44:00,28.5,22.0,30.32,South,176,0.0,0.0,76,0.00,,,0.08,weatherlink.com 1.10,2013-02-11 04:44:00,
2013-02-10 23:59:00,28.7,22.0,30.32,South,176,0.0,1.0,77,0.00,,,0.08,weatherlink.com 1.10,2013-02-11 04:59:00,